Time,TemperatureF,DewpointF,PressureIn,WindDirection,WindDirectionDegrees,WindSpeedMPH,WindSpeedGustMPH,Humidity,HourlyPrecipIn,Conditions,Clouds,dailyrainin,SoftwareType,DateUTC
2013-04-10 00:01:00,32.0,30.5,28.44,NNW,340,0.0,0.0,94,0.08,,---,0.00,VWS V14.00,2013-04-10 05:01:00,
2013-04-10 00:07:00,32.0,30.5,28.35,NNW,340,0.0,0.0,94,0.08,,---,0.00,VWS V14.00,2013-04-10 05:07:00,
2013-04-10 00:12:00,32.0,30.2,28.35,NNW,340,0.0,0.0,93,0.04,,---,0.00,VWS V14.00,2013-04-10 05:12:00,
2013-04-10 00:17:00,32.2,30.4,28.35,NNW,340,0.0,0.0,93,0.04,,---,0.00,VWS V14.00,2013-04-10 05:17:00,
2013-04-10 00:22:00,32.2,30.6,28.41,NNW,340,0.0,0.0,94,0.04,,---,0.00,VWS V14.00,2013-04-10 05:22:00,
2013-04-10 00:27:00,32.0,30.2,28.41,NNW,340,0.0,0.0,93,0.08,,---,0.04,VWS V14.00,2013-04-10 05:27:00,
2013-04-10 00:33:00,31.8,29.8,28.41,NNW,340,0.0,0.0,92,0.08,,---,0.04,VWS V14.00,2013-04-10 05:33:00,
2013-04-10 00:38:00,31.6,29.6,28.35,NNW,340,0.0,0.0,92,0.08,,---,0.04,VWS V14.00,2013-04-10 05:38:00,
2013-04-10 00:43:00,31.6,29.3,28.35,NNW,340,0.0,0.0,91,0.04,,---,0.04,VWS V14.00,2013-04-10 05:43:00,
2013-04-10 00:48:00,31.5,29.1,28.35,NNW,340,0.0,0.0,91,0.04,,---,0.04,VWS V14.00,2013-04-10 05:48:00,
2013-04-10 00:53:00,31.5,29.1,28.35,NNW,340,0.0,0.0,91,0.04,,---,0.04,VWS V14.00,2013-04-10 05:53:00,
2013-04-10 00:58:00,31.6,29.3,28.35,NNW,340,0.0,0.0,91,0.04,,---,0.04,VWS V14.00,2013-04-10 05:58:00,
2013-04-10 01:03:00,31.6,29.3,28.35,NNW,340,0.0,0.0,91,0.04,,---,0.04,VWS V14.00,2013-04-10 06:03:00,
2013-04-10 01:08:00,31.5,29.1,28.38,NNW,340,0.0,0.0,91,0.04,,---,0.04,VWS V14.00,2013-04-10 06:08:00,
2013-04-10 01:13:00,31.3,28.7,28.38,NNW,340,0.0,0.0,90,0.04,,---,0.04,VWS V14.00,2013-04-10 06:13:00,
2013-04-10 01:18:00,31.1,28.5,28.38,NNW,340,0.0,0.0,90,0.04,,---,0.04,VWS V14.00,2013-04-10 06:18:00,
2013-04-10 01:23:00,30.9,28.3,28.41,NNW,340,0.0,0.0,90,0.04,,---,0.04,VWS V14.00,2013-04-10 06:23:00,
2013-04-10 01:28:00,30.7,28.2,28.41,NNW,340,0.0,0.0,90,0.00,,---,0.04,VWS V14.00,2013-04-10 06:28:00,
2013-04-10 01:33:00,30.6,27.7,28.41,NNW,340,0.0,0.0,89,0.00,,---,0.04,VWS V14.00,2013-04-10 06:33:00,
2013-04-10 01:39:00,30.4,27.5,28.41,NNW,340,0.0,0.0,89,0.00,,---,0.04,VWS V14.00,2013-04-10 06:39:00,
2013-04-10 01:44:00,30.4,27.5,28.41,NNW,340,0.0,0.0,89,0.00,,---,0.04,VWS V14.00,2013-04-10 06:44:00,
2013-04-10 01:49:00,30.4,27.5,28.41,NNW,340,0.0,0.0,89,0.00,,---,0.04,VWS V14.00,2013-04-10 06:49:00,
2013-04-10 01:54:00,30.2,27.4,28.41,NNW,340,0.0,0.0,89,0.00,,---,0.04,VWS V14.00,2013-04-10 06:54:00,
2013-04-10 01:59:00,30.2,27.4,28.41,NNW,340,0.0,0.0,89,0.00,,---,0.04,VWS V14.00,2013-04-10 06:59:00,
2013-04-10 02:04:00,30.4,27.5,28.41,NNW,340,0.0,0.0,89,0.00,,---,0.04,VWS V14.00,2013-04-10 07:04:00,
2013-04-10 02:09:00,30.4,27.5,28.53,NNW,340,0.0,0.0,89,0.00,,---,0.04,VWS V14.00,2013-04-10 07:09:00,
2013-04-10 02:14:00,30.4,27.5,28.53,NNW,340,0.0,0.0,89,0.00,,---,0.04,VWS V14.00,2013-04-10 07:14:00,
2013-04-10 02:19:00,30.4,27.5,28.50,NNW,340,0.0,0.0,89,0.00,,---,0.04,VWS V14.00,2013-04-10 07:19:00,
2013-04-10 02:25:00,30.2,27.4,28.50,NNW,340,0.0,0.0,89,0.00,,---,0.04,VWS V14.00,2013-04-10 07:25:00,
2013-04-10 02:30:00,30.2,27.4,28.50,NNW,340,0.0,0.0,89,0.00,,---,0.04,VWS V14.00,2013-04-10 07:30:00,
2013-04-10 02:35:00,30.2,27.4,28.44,NNW,340,0.0,0.0,89,0.00,,---,0.04,VWS V14.00,2013-04-10 07:35:00,
2013-04-10 02:40:00,30.0,27.2,28.44,NNW,340,0.0,0.0,89,0.00,,---,0.04,VWS V14.00,2013-04-10 07:40:00,
2013-04-10 02:45:00,30.0,27.2,28.44,NNW,340,0.0,0.0,89,0.00,,---,0.04,VWS V14.00,2013-04-10 07:45:00,
2013-04-10 02:50:00,30.0,27.2,28.38,NNW,340,0.0,0.0,89,0.00,,---,0.04,VWS V14.00,2013-04-10 07:50:00,
2013-04-10 02:55:00,29.8,27.0,28.38,NNW,340,0.0,0.0,89,0.00,,---,0.04,VWS V14.00,2013-04-10 07:55:00,
2013-04-10 03:00:00,29.5,26.6,28.38,NNW,340,0.0,0.0,89,0.00,,---,0.04,VWS V14.00,2013-04-10 08:00:00,
2013-04-10 03:05:00,29.5,26.6,28.35,NNW,340,0.0,0.0,89,0.00,,---,0.04,VWS V14.00,2013-04-10 08:05:00,
2013-04-10 03:11:00,29.5,26.6,28.35,NNW,340,0.0,0.0,89,0.00,,---,0.04,VWS V14.00,2013-04-10 08:11:00,
2013-04-10 03:16:00,29.5,26.6,28.35,NNW,340,0.0,0.0,89,0.00,,---,0.04,VWS V14.00,2013-04-10 08:16:00,
2013-04-10 03:21:00,29.3,26.2,28.35,NNW,340,0.0,0.0,88,0.00,,---,0.04,VWS V14.00,2013-04-10 08:21:00,
2013-04-10 03:26:00,29.1,26.0,28.35,NNW,340,0.0,0.0,88,0.00,,---,0.04,VWS V14.00,2013-04-10 08:26:00,
2013-04-10 03:31:00,29.1,26.0,28.35,NNW,340,0.0,0.0,88,0.00,,---,0.04,VWS V14.00,2013-04-10 08:31:00,
2013-04-10 03:36:00,29.1,26.0,28.38,NNW,340,0.0,0.0,88,0.00,,---,0.04,VWS V14.00,2013-04-10 08:36:00,
2013-04-10 03:41:00,29.1,26.0,28.38,NNW,340,0.0,0.0,88,0.00,,---,0.04,VWS V14.00,2013-04-10 08:41:00,
2013-04-10 03:46:00,29.1,26.0,28.38,NNW,340,0.0,0.0,88,0.00,,---,0.04,VWS V14.00,2013-04-10 08:46:00,
2013-04-10 03:51:00,29.1,26.0,28.38,NNW,340,0.0,0.0,88,0.00,,---,0.04,VWS V14.00,2013-04-10 08:51:00,
2013-04-10 03:56:00,29.1,25.7,28.38,NNW,340,0.0,0.0,87,0.00,,---,0.04,VWS V14.00,2013-04-10 08:56:00,
2013-04-10 04:02:00,29.3,25.9,28.38,NNW,340,0.0,0.0,87,0.00,,---,0.04,VWS V14.00,2013-04-10 09:02:00,
2013-04-10 04:07:00,29.3,25.9,28.41,NNW,340,0.0,0.0,87,0.00,,---,0.04,VWS V14.00,2013-04-10 09:07:00,
2013-04-10 04:12:00,29.5,26.4,28.41,NNW,340,0.0,0.0,88,0.00,,---,0.04,VWS V14.00,2013-04-10 09:12:00,
2013-04-10 04:17:00,29.5,26.4,28.41,NNW,340,0.0,0.0,88,0.00,,---,0.04,VWS V14.00,2013-04-10 09:17:00,
2013-04-10 04:22:00,29.5,26.4,28.44,NNW,340,0.0,0.0,88,0.00,,---,0.04,VWS V14.00,2013-04-10 09:22:00,
2013-04-10 04:27:00,29.7,26.5,28.44,NNW,340,0.0,0.0,88,0.00,,---,0.04,VWS V14.00,2013-04-10 09:27:00,
2013-04-10 04:32:00,29.7,26.5,28.44,NNW,340,0.0,0.0,88,0.00,,---,0.04,VWS V14.00,2013-04-10 09:32:00,
2013-04-10 04:37:00,29.8,26.7,28.44,NNW,340,0.0,0.0,88,0.00,,---,0.04,VWS V14.00,2013-04-10 09:37:00,
2013-04-10 04:43:00,30.0,27.2,28.44,NNW,340,0.0,0.0,89,0.00,,---,0.04,VWS V14.00,2013-04-10 09:43:00,
2013-04-10 04:48:00,30.2,27.4,28.44,NNW,340,0.0,0.0,89,0.00,,---,0.04,VWS V14.00,2013-04-10 09:48:00,
2013-04-10 04:53:00,30.2,27.4,28.41,NNW,340,0.0,0.0,89,0.00,,---,0.04,VWS V14.00,2013-04-10 09:53:00,
2013-04-10 04:58:00,30.2,27.4,28.41,NNW,340,0.0,0.0,89,0.00,,---,0.04,VWS V14.00,2013-04-10 09:58:00,
2013-04-10 05:03:00,30.4,27.5,28.41,NNW,340,0.0,0.0,89,0.00,,---,0.04,VWS V14.00,2013-04-10 10:03:00,
2013-04-10 05:08:00,30.4,27.5,28.44,NNW,340,0.0,0.0,89,0.00,,---,0.04,VWS V14.00,2013-04-10 10:08:00,
2013-04-10 05:13:00,30.4,27.5,28.44,NNW,340,0.0,0.0,89,0.00,,---,0.04,VWS V14.00,2013-04-10 10:13:00,
2013-04-10 05:18:00,30.2,27.4,28.44,NNW,340,0.0,0.0,89,0.00,,---,0.04,VWS V14.00,2013-04-10 10:18:00,
2013-04-10 05:23:00,30.2,27.4,28.44,NNW,340,0.0,0.0,89,0.00,,---,0.04,VWS V14.00,2013-04-10 10:23:00,
2013-04-10 05:28:00,30.2,27.4,28.44,NNW,340,0.0,0.0,89,0.00,,---,0.04,VWS V14.00,2013-04-10 10:28:00,
2013-04-10 05:33:00,30.2,27.4,28.44,NNW,340,0.0,0.0,89,0.00,,---,0.04,VWS V14.00,2013-04-10 10:33:00,
2013-04-10 05:38:00,30.2,27.4,28.41,NNW,340,0.0,0.0,89,0.00,,---,0.04,VWS V14.00,2013-04-10 10:38:00,
2013-04-10 05:43:00,30.2,27.4,28.41,NNW,340,0.0,0.0,89,0.00,,---,0.04,VWS V14.00,2013-04-10 10:43:00,
2013-04-10 05:49:00,30.2,27.4,28.41,NNW,340,0.0,0.0,89,0.00,,---,0.04,VWS V14.00,2013-04-10 10:49:00,
2013-04-10 05:54:00,30.2,27.4,28.41,NNW,340,0.0,0.0,89,0.00,,---,0.04,VWS V14.00,2013-04-10 10:54:00,
2013-04-10 05:59:00,30.2,27.4,28.41,NNW,340,0.0,0.0,89,0.00,,---,0.04,VWS V14.00,2013-04-10 10:59:00,
2013-04-10 06:04:00,30.2,27.4,28.41,NNW,340,0.0,0.0,89,0.00,,---,0.04,VWS V14.00,2013-04-10 11:04:00,
2013-04-10 06:09:00,30.2,27.4,28.41,NNW,340,0.0,0.0,89,0.00,,---,0.04,VWS V14.00,2013-04-10 11:09:00,
2013-04-10 06:14:00,30.2,27.4,28.41,NNW,340,0.0,0.0,89,0.00,,---,0.04,VWS V14.00,2013-04-10 11:14:00,
2013-04-10 06:19:00,30.2,27.4,28.44,NNW,340,0.0,0.0,89,0.00,,---,0.04,VWS V14.00,2013-04-10 11:19:00,
2013-04-10 06:24:00,30.2,27.4,28.44,NNW,340,0.0,0.0,89,0.00,,---,0.04,VWS V14.00,2013-04-10 11:24:00,
2013-04-10 06:29:00,30.2,27.4,28.44,NNW,340,0.0,0.0,89,0.00,,---,0.04,VWS V14.00,2013-04-10 11:29:00,
2013-04-10 06:34:00,30.0,27.2,28.44,NNW,340,0.0,0.0,89,0.00,,---,0.04,VWS V14.00,2013-04-10 11:34:00,
2013-04-10 06:39:00,30.0,26.9,28.44,NNW,340,0.0,0.0,88,0.00,,---,0.04,VWS V14.00,2013-04-10 11:39:00,
2013-04-10 06:44:00,29.8,26.7,28.44,NNW,340,0.0,0.0,88,0.00,,---,0.04,VWS V14.00,2013-04-10 11:44:00,
2013-04-10 06:49:00,29.7,26.3,28.44,NNW,340,0.0,0.0,87,0.00,,---,0.04,VWS V14.00,2013-04-10 11:49:00,
2013-04-10 06:55:00,29.7,26.3,28.44,NNW,340,0.0,0.0,87,0.00,,---,0.04,VWS V14.00,2013-04-10 11:55:00,
2013-04-10 07:00:00,29.7,26.3,28.44,NNW,340,0.0,0.0,87,0.00,,---,0.04,VWS V14.00,2013-04-10 12:00:00,
2013-04-10 07:05:00,29.7,26.0,28.41,NNW,340,0.0,0.0,86,0.00,,---,0.04,VWS V14.00,2013-04-10 12:05:00,
2013-04-10 07:10:00,29.5,25.8,28.41,NNW,336,0.0,0.0,86,0.00,,---,0.04,VWS V14.00,2013-04-10 12:10:00,
2013-04-10 07:15:00,29.5,25.8,28.41,NNW,340,0.0,0.0,86,0.00,,---,0.04,VWS V14.00,2013-04-10 12:15:00,
2013-04-10 07:20:00,29.5,25.8,28.41,NNW,341,0.0,0.0,86,0.00,,---,0.04,VWS V14.00,2013-04-10 12:20:00,
2013-04-10 07:25:00,29.5,25.8,28.41,NNW,340,0.0,0.0,86,0.00,,---,0.04,VWS V14.00,2013-04-10 12:25:00,
2013-04-10 07:30:00,29.5,26.1,28.41,NNW,340,0.0,0.0,87,0.00,,---,0.04,VWS V14.00,2013-04-10 12:30:00,
2013-04-10 07:35:00,29.5,26.1,28.41,NNW,340,0.0,0.0,87,0.00,,---,0.04,VWS V14.00,2013-04-10 12:35:00,
2013-04-10 07:40:00,29.5,26.1,28.41,NNW,340,0.0,0.0,87,0.00,,---,0.04,VWS V14.00,2013-04-10 12:40:00,
2013-04-10 07:45:00,29.3,25.6,28.41,NNW,340,0.0,0.0,86,0.00,,---,0.04,VWS V14.00,2013-04-10 12:45:00,
2013-04-10 07:51:00,29.1,25.5,28.41,NNW,339,0.0,0.0,86,0.00,,---,0.04,VWS V14.00,2013-04-10 12:51:00,
2013-04-10 07:56:00,29.1,25.5,28.41,NNW,340,0.0,0.0,86,0.00,,---,0.04,VWS V14.00,2013-04-10 12:56:00,
2013-04-10 08:01:00,29.1,25.5,28.41,NNW,340,0.0,0.0,86,0.00,,---,0.04,VWS V14.00,2013-04-10 13:01:00,
2013-04-10 08:06:00,29.3,25.6,28.47,NNW,340,0.0,0.0,86,0.00,,---,0.04,VWS V14.00,2013-04-10 13:06:00,
2013-04-10 08:11:00,29.5,25.8,28.47,NNW,340,0.0,0.0,86,0.00,,---,0.04,VWS V14.00,2013-04-10 13:11:00,
2013-04-10 08:16:00,29.5,25.8,28.47,NNW,340,0.0,0.0,86,0.00,,---,0.04,VWS V14.00,2013-04-10 13:16:00,
2013-04-10 08:21:00,29.7,26.0,28.44,NNW,340,0.0,0.0,86,0.00,,---,0.04,VWS V14.00,2013-04-10 13:21:00,
2013-04-10 08:27:00,29.8,26.2,28.44,NNW,340,0.0,0.0,86,0.00,,---,0.04,VWS V14.00,2013-04-10 13:27:00,
2013-04-10 08:32:00,29.8,26.2,28.44,NNW,340,0.0,0.0,86,0.00,,---,0.04,VWS V14.00,2013-04-10 13:32:00,
2013-04-10 08:37:00,29.8,26.2,28.41,NNW,340,0.0,0.0,86,0.00,,---,0.04,VWS V14.00,2013-04-10 13:37:00,
2013-04-10 08:42:00,29.7,26.0,28.41,NNW,340,0.0,0.0,86,0.00,,---,0.04,VWS V14.00,2013-04-10 13:42:00,
2013-04-10 08:47:00,29.7,26.0,28.41,NNW,340,0.0,0.0,86,0.00,,---,0.04,VWS V14.00,2013-04-10 13:47:00,
2013-04-10 08:52:00,29.7,26.0,28.41,NNW,340,0.0,0.0,86,0.00,,---,0.04,VWS V14.00,2013-04-10 13:52:00,
2013-04-10 08:57:00,29.5,25.8,28.41,NNW,340,0.0,0.0,86,0.00,,---,0.04,VWS V14.00,2013-04-10 13:57:00,
2013-04-10 09:02:00,29.5,25.8,28.41,NNW,340,0.0,0.0,86,0.00,,---,0.04,VWS V14.00,2013-04-10 14:02:00,
2013-04-10 09:07:00,29.5,26.1,28.44,NNW,340,0.0,0.0,87,0.00,,---,0.04,VWS V14.00,2013-04-10 14:07:00,
2013-04-10 09:12:00,29.7,26.3,28.44,NNW,340,0.0,0.0,87,0.00,,---,0.04,VWS V14.00,2013-04-10 14:12:00,
2013-04-10 09:17:00,29.7,26.3,28.44,NNW,340,0.0,0.0,87,0.00,,---,0.04,VWS V14.00,2013-04-10 14:17:00,
2013-04-10 09:22:00,29.8,26.5,28.47,NNW,340,0.0,0.0,87,0.00,,---,0.04,VWS V14.00,2013-04-10 14:22:00,
2013-04-10 09:27:00,30.0,26.9,28.47,NNW,340,0.0,0.0,88,0.00,,---,0.04,VWS V14.00,2013-04-10 14:27:00,
2013-04-10 09:33:00,30.2,27.1,28.47,NNW,340,0.0,0.0,88,0.00,,---,0.04,VWS V14.00,2013-04-10 14:33:00,
2013-04-10 09:38:00,30.2,27.1,28.47,NNW,340,0.0,0.0,88,0.00,,---,0.04,VWS V14.00,2013-04-10 14:38:00,
2013-04-10 09:43:00,30.2,27.1,28.47,NNW,340,0.0,0.0,88,0.00,,---,0.04,VWS V14.00,2013-04-10 14:43:00,
2013-04-10 09:48:00,30.4,27.0,28.47,NNW,340,0.0,0.0,87,0.00,,---,0.04,VWS V14.00,2013-04-10 14:48:00,
2013-04-10 09:53:00,30.2,27.1,28.47,NNW,340,0.0,0.0,88,0.00,,---,0.04,VWS V14.00,2013-04-10 14:53:00,
2013-04-10 09:58:00,30.2,27.1,28.47,NNW,340,0.0,0.0,88,0.00,,---,0.04,VWS V14.00,2013-04-10 14:58:00,
2013-04-10 10:03:00,30.2,26.8,28.47,NNW,340,0.0,0.0,87,0.00,,---,0.04,VWS V14.00,2013-04-10 15:03:00,
2013-04-10 10:08:00,30.2,26.8,28.44,NNW,340,0.0,0.0,87,0.00,,---,0.04,VWS V14.00,2013-04-10 15:08:00,
2013-04-10 10:13:00,30.2,27.1,28.44,NNW,340,0.0,0.0,88,0.00,,---,0.04,VWS V14.00,2013-04-10 15:13:00,
2013-04-10 10:18:00,30.2,27.1,28.44,NNW,340,0.0,0.0,88,0.00,,---,0.04,VWS V14.00,2013-04-10 15:18:00,
2013-04-10 10:23:00,30.0,26.6,28.47,NNW,340,0.0,0.0,87,0.00,,---,0.04,VWS V14.00,2013-04-10 15:23:00,
2013-04-10 10:28:00,30.0,26.6,28.47,NNW,340,0.0,0.0,87,0.00,,---,0.04,VWS V14.00,2013-04-10 15:28:00,
2013-04-10 10:33:00,30.0,26.6,28.47,NNW,340,0.0,0.0,87,0.00,,---,0.04,VWS V14.00,2013-04-10 15:33:00,
2013-04-10 10:38:00,30.0,26.4,28.47,NNW,340,0.0,0.0,86,0.00,,---,0.04,VWS V14.00,2013-04-10 15:38:00,
2013-04-10 10:44:00,30.0,26.4,28.47,NNW,340,0.0,0.0,86,0.00,,---,0.04,VWS V14.00,2013-04-10 15:44:00,
2013-04-10 10:49:00,30.0,26.4,28.47,NNW,340,0.0,0.0,86,0.00,,---,0.04,VWS V14.00,2013-04-10 15:49:00,
2013-04-10 10:54:00,29.8,25.9,28.47,NNW,340,0.0,0.0,85,0.00,,---,0.04,VWS V14.00,2013-04-10 15:54:00,
2013-04-10 10:59:00,29.8,25.9,28.47,NNW,340,0.0,0.0,85,0.00,,---,0.04,VWS V14.00,2013-04-10 15:59:00,
2013-04-10 11:04:00,29.8,25.9,28.47,NNW,340,0.0,0.0,85,0.00,,---,0.04,VWS V14.00,2013-04-10 16:04:00,
2013-04-10 11:09:00,30.0,26.1,28.50,NNW,340,0.0,0.0,85,0.00,,---,0.04,VWS V14.00,2013-04-10 16:09:00,
2013-04-10 11:14:00,30.0,26.1,28.50,NNW,340,0.0,0.0,85,0.00,,---,0.04,VWS V14.00,2013-04-10 16:14:00,
2013-04-10 11:19:00,30.2,26.2,28.50,NNW,340,0.0,0.0,85,0.00,,---,0.04,VWS V14.00,2013-04-10 16:19:00,
2013-04-10 11:24:00,30.2,26.2,28.50,NNW,340,0.0,0.0,85,0.00,,---,0.04,VWS V14.00,2013-04-10 16:24:00,
2013-04-10 11:29:00,30.0,26.1,28.50,NNW,340,0.0,0.0,85,0.00,,---,0.04,VWS V14.00,2013-04-10 16:29:00,
2013-04-10 11:35:00,30.2,26.2,28.47,NNW,340,0.0,0.0,85,0.00,,---,0.04,VWS V14.00,2013-04-10 16:35:00,
2013-04-10 11:40:00,30.2,26.2,28.47,NNW,340,0.0,0.0,85,0.00,,---,0.04,VWS V14.00,2013-04-10 16:40:00,
2013-04-10 11:45:00,30.2,26.2,28.47,NNW,340,0.0,0.0,85,0.00,,---,0.04,VWS V14.00,2013-04-10 16:45:00,
2013-04-10 11:50:00,30.2,26.2,28.44,NNW,340,0.0,0.0,85,0.00,,---,0.04,VWS V14.00,2013-04-10 16:50:00,
2013-04-10 11:55:00,30.2,26.0,28.44,NNW,340,0.0,0.0,84,0.00,,---,0.04,VWS V14.00,2013-04-10 16:55:00,
2013-04-10 12:00:00,30.2,26.0,28.44,NNW,340,0.0,0.0,84,0.00,,---,0.04,VWS V14.00,2013-04-10 17:00:00,
2013-04-10 12:05:00,30.4,26.1,28.47,NNW,340,0.0,0.0,84,0.00,,---,0.04,VWS V14.00,2013-04-10 17:05:00,
2013-04-10 12:10:00,30.2,26.2,28.47,NNW,340,0.0,0.0,85,0.00,,---,0.04,VWS V14.00,2013-04-10 17:10:00,
2013-04-10 12:15:00,30.2,26.0,28.47,NNW,340,0.0,0.0,84,0.00,,---,0.04,VWS V14.00,2013-04-10 17:15:00,
2013-04-10 12:20:00,30.4,26.1,28.47,NNW,340,0.0,0.0,84,0.00,,---,0.04,VWS V14.00,2013-04-10 17:20:00,
2013-04-10 12:25:00,30.4,26.1,28.47,NNW,340,0.0,0.0,84,0.00,,---,0.04,VWS V14.00,2013-04-10 17:25:00,
2013-04-10 12:30:00,30.6,26.6,28.47,NNW,340,0.0,0.0,85,0.00,,---,0.04,VWS V14.00,2013-04-10 17:30:00,
2013-04-10 12:35:00,30.6,26.6,28.47,NNW,340,0.0,0.0,85,0.00,,---,0.04,VWS V14.00,2013-04-10 17:35:00,
2013-04-10 12:40:00,30.6,26.6,28.47,NNW,340,0.0,0.0,85,0.00,,---,0.04,VWS V14.00,2013-04-10 17:40:00,
2013-04-10 12:46:00,30.6,26.6,28.47,NNW,340,0.0,0.0,85,0.00,,---,0.04,VWS V14.00,2013-04-10 17:46:00,
2013-04-10 12:51:00,30.4,26.4,28.44,NNW,340,0.0,0.0,85,0.00,,---,0.04,VWS V14.00,2013-04-10 17:51:00,
2013-04-10 12:56:00,30.4,26.4,28.44,NNW,340,0.0,0.0,85,0.00,,---,0.04,VWS V14.00,2013-04-10 17:56:00,
2013-04-10 13:01:00,30.2,26.2,28.44,NNW,340,0.0,0.0,85,0.00,,---,0.04,VWS V14.00,2013-04-10 18:01:00,
2013-04-10 13:06:00,30.2,26.2,28.44,NNW,340,0.0,0.0,85,0.00,,---,0.04,VWS V14.00,2013-04-10 18:06:00,
2013-04-10 13:11:00,30.4,26.4,28.44,NNW,340,0.0,0.0,85,0.00,,---,0.04,VWS V14.00,2013-04-10 18:11:00,
2013-04-10 13:17:00,30.4,26.7,28.44,NNW,340,0.0,0.0,86,0.00,,---,0.04,VWS V14.00,2013-04-10 18:17:00,
2013-04-10 13:22:00,30.4,26.7,28.44,NNW,340,0.0,0.0,86,0.00,,---,0.04,VWS V14.00,2013-04-10 18:22:00,
2013-04-10 13:27:00,30.4,26.4,28.44,NNW,340,0.0,0.0,85,0.00,,---,0.04,VWS V14.00,2013-04-10 18:27:00,
2013-04-10 13:32:00,30.4,26.4,28.44,NNW,340,0.0,0.0,85,0.00,,---,0.04,VWS V14.00,2013-04-10 18:32:00,
2013-04-10 13:37:00,30.4,26.7,28.44,NNW,340,0.0,0.0,86,0.00,,---,0.04,VWS V14.00,2013-04-10 18:37:00,
2013-04-10 13:42:00,30.4,26.7,28.44,NNW,340,0.0,0.0,86,0.00,,---,0.04,VWS V14.00,2013-04-10 18:42:00,
2013-04-10 13:47:00,30.4,26.4,28.44,NNW,340,0.0,0.0,85,0.00,,---,0.04,VWS V14.00,2013-04-10 18:47:00,
2013-04-10 13:53:00,30.4,26.7,28.44,NNW,340,0.0,0.0,86,0.00,,---,0.04,VWS V14.00,2013-04-10 18:53:00,
2013-04-10 13:58:00,30.4,26.7,28.44,NNW,340,0.0,0.0,86,0.00,,---,0.04,VWS V14.00,2013-04-10 18:58:00,
2013-04-10 14:03:00,30.4,26.7,28.44,NNW,340,0.0,0.0,86,0.00,,---,0.04,VWS V14.00,2013-04-10 19:03:00,
2013-04-10 14:08:00,30.4,26.7,28.44,NNW,340,0.0,0.0,86,0.00,,---,0.04,VWS V14.00,2013-04-10 19:08:00,
2013-04-10 14:13:00,30.4,27.0,28.44,NNW,340,0.0,0.0,87,0.00,,---,0.04,VWS V14.00,2013-04-10 19:13:00,
2013-04-10 14:18:00,30.4,27.0,28.44,NNW,340,0.0,0.0,87,0.00,,---,0.04,VWS V14.00,2013-04-10 19:18:00,
2013-04-10 14:23:00,30.2,27.1,28.41,NNW,340,0.0,0.0,88,0.00,,---,0.04,VWS V14.00,2013-04-10 19:23:00,
2013-04-10 14:28:00,30.2,27.1,28.41,NNW,340,0.0,0.0,88,0.00,,---,0.04,VWS V14.00,2013-04-10 19:28:00,
2013-04-10 14:33:00,30.4,27.3,28.41,NNW,340,0.0,0.0,88,0.00,,---,0.04,VWS V14.00,2013-04-10 19:33:00,
2013-04-10 14:39:00,30.6,27.7,28.41,NNW,340,0.0,0.0,89,0.00,,---,0.04,VWS V14.00,2013-04-10 19:39:00,
2013-04-10 14:44:00,30.7,27.9,28.41,NNW,340,0.0,0.0,89,0.00,,---,0.04,VWS V14.00,2013-04-10 19:44:00,
2013-04-10 14:49:00,30.7,27.9,28.41,NNW,340,0.0,0.0,89,0.00,,---,0.04,VWS V14.00,2013-04-10 19:49:00,
2013-04-10 14:54:00,30.7,28.2,28.41,NNW,340,0.0,0.0,90,0.00,,---,0.04,VWS V14.00,2013-04-10 19:54:00,
2013-04-10 14:59:00,30.7,28.2,28.41,NNW,340,0.0,0.0,90,0.00,,---,0.04,VWS V14.00,2013-04-10 19:59:00,
2013-04-10 15:04:00,30.7,28.2,28.41,NNW,340,0.0,0.0,90,0.00,,---,0.04,VWS V14.00,2013-04-10 20:04:00,
2013-04-10 15:09:00,30.7,28.2,28.41,NNW,340,0.0,0.0,90,0.00,,---,0.04,VWS V14.00,2013-04-10 20:09:00,
2013-04-10 15:14:00,30.9,28.3,28.41,NNW,340,0.0,0.0,90,0.00,,---,0.04,VWS V14.00,2013-04-10 20:14:00,
2013-04-10 15:19:00,30.9,28.6,28.41,NNW,340,0.0,0.0,91,0.00,,---,0.04,VWS V14.00,2013-04-10 20:19:00,
2013-04-10 15:24:00,31.1,28.8,28.41,NNW,340,0.0,0.0,91,0.00,,---,0.04,VWS V14.00,2013-04-10 20:24:00,
2013-04-10 15:30:00,31.1,28.8,28.41,NNW,340,0.0,0.0,91,0.00,,---,0.04,VWS V14.00,2013-04-10 20:30:00,
2013-04-10 15:35:00,31.1,28.8,28.38,NNW,340,0.0,0.0,91,0.00,,---,0.04,VWS V14.00,2013-04-10 20:35:00,
2013-04-10 15:40:00,31.1,29.0,28.38,NNW,340,0.0,0.0,92,0.00,,---,0.04,VWS V14.00,2013-04-10 20:40:00,
2013-04-10 15:45:00,31.1,29.0,28.38,NNW,340,0.0,0.0,92,0.00,,---,0.04,VWS V14.00,2013-04-10 20:45:00,
2013-04-10 15:50:00,31.1,29.0,28.38,NNW,340,0.0,0.0,92,0.00,,---,0.04,VWS V14.00,2013-04-10 20:50:00,
2013-04-10 15:55:00,31.1,29.0,28.38,NNW,340,0.0,0.0,92,0.00,,---,0.04,VWS V14.00,2013-04-10 20:55:00,
2013-04-10 16:00:00,31.1,29.0,28.38,NNW,340,0.0,0.0,92,0.00,,---,0.04,VWS V14.00,2013-04-10 21:00:00,
2013-04-10 16:05:00,31.1,29.0,28.38,NNW,340,0.0,0.0,92,0.00,,---,0.04,VWS V14.00,2013-04-10 21:05:00,
2013-04-10 16:10:00,31.1,29.0,28.38,NNW,340,0.0,0.0,92,0.00,,---,0.04,VWS V14.00,2013-04-10 21:10:00,
2013-04-10 16:15:00,31.1,29.0,28.38,NNW,340,0.0,0.0,92,0.00,,---,0.04,VWS V14.00,2013-04-10 21:15:00,
2013-04-10 16:20:00,31.1,29.0,28.35,NNW,340,0.0,0.0,92,0.00,,---,0.04,VWS V14.00,2013-04-10 21:20:00,
2013-04-10 16:25:00,31.1,29.0,28.35,NNW,340,0.0,0.0,92,0.00,,---,0.04,VWS V14.00,2013-04-10 21:25:00,
2013-04-10 16:31:00,31.1,29.0,28.35,NNW,340,0.0,0.0,92,0.00,,---,0.04,VWS V14.00,2013-04-10 21:31:00,
2013-04-10 16:36:00,31.3,29.2,28.35,NNW,340,0.0,0.0,92,0.00,,---,0.04,VWS V14.00,2013-04-10 21:36:00,
2013-04-10 16:41:00,31.3,29.5,28.35,NNW,340,0.0,0.0,93,0.00,,---,0.04,VWS V14.00,2013-04-10 21:41:00,
2013-04-10 16:46:00,31.5,29.7,28.35,NNW,340,0.0,0.0,93,0.00,,---,0.04,VWS V14.00,2013-04-10 21:46:00,
2013-04-10 16:51:00,31.5,29.7,28.35,NNW,340,0.0,0.0,93,0.00,,---,0.04,VWS V14.00,2013-04-10 21:51:00,
2013-04-10 16:56:00,31.5,29.7,28.35,NNW,340,0.0,0.0,93,0.00,,---,0.04,VWS V14.00,2013-04-10 21:56:00,
2013-04-10 17:01:00,31.5,29.7,28.35,NNW,340,0.0,0.0,93,0.00,,---,0.04,VWS V14.00,2013-04-10 22:01:00,
2013-04-10 17:06:00,31.5,29.4,28.38,NNW,340,0.0,0.0,92,0.00,,---,0.04,VWS V14.00,2013-04-10 22:06:00,
2013-04-10 17:11:00,31.5,29.4,28.38,NNW,340,0.0,0.0,92,0.00,,---,0.04,VWS V14.00,2013-04-10 22:11:00,
2013-04-10 17:16:00,31.5,29.4,28.38,NNW,340,0.0,0.0,92,0.00,,---,0.04,VWS V14.00,2013-04-10 22:16:00,
2013-04-10 17:22:00,31.6,29.6,28.38,NNW,340,0.0,0.0,92,0.00,,---,0.04,VWS V14.00,2013-04-10 22:22:00,
2013-04-10 17:27:00,31.6,29.3,28.38,NNW,340,0.0,0.0,91,0.00,,---,0.04,VWS V14.00,2013-04-10 22:27:00,
2013-04-10 17:32:00,31.8,29.5,28.38,NNW,340,0.0,0.0,91,0.00,,---,0.04,VWS V14.00,2013-04-10 22:32:00,
2013-04-10 17:37:00,31.8,29.2,28.35,NNW,340,0.0,0.0,90,0.00,,---,0.04,VWS V14.00,2013-04-10 22:37:00,
2013-04-10 17:42:00,31.8,29.2,28.35,NNW,340,0.0,0.0,90,0.00,,---,0.04,VWS V14.00,2013-04-10 22:42:00,
2013-04-10 17:47:00,32.0,29.1,28.35,NNW,340,0.0,0.0,89,0.00,,---,0.04,VWS V14.00,2013-04-10 22:47:00,
2013-04-10 17:52:00,32.0,28.9,28.35,NNW,340,0.0,0.0,88,0.00,,---,0.04,VWS V14.00,2013-04-10 22:52:00,
2013-04-10 17:57:00,32.0,28.9,28.35,NNW,340,0.0,0.0,88,0.04,,---,0.08,VWS V14.00,2013-04-10 22:57:00,
2013-04-10 18:02:00,32.0,28.6,28.35,NNW,340,0.0,0.0,87,0.04,,---,0.08,VWS V14.00,2013-04-10 23:02:00,
2013-04-10 18:07:00,32.2,28.8,28.35,NNW,340,0.0,0.0,87,0.04,,---,0.08,VWS V14.00,2013-04-10 23:07:00,
2013-04-10 18:12:00,32.2,28.8,28.35,NNW,340,0.0,0.0,87,0.04,,---,0.08,VWS V14.00,2013-04-10 23:12:00,
2013-04-10 18:17:00,32.2,28.5,28.35,NNW,340,0.0,0.0,86,0.04,,---,0.08,VWS V14.00,2013-04-10 23:17:00,
2013-04-10 18:22:00,32.2,28.5,28.35,NNW,340,0.0,0.0,86,0.04,,---,0.08,VWS V14.00,2013-04-10 23:22:00,
2013-04-10 18:28:00,32.2,28.5,28.35,NNW,340,0.0,0.0,86,0.04,,---,0.08,VWS V14.00,2013-04-10 23:28:00,
2013-04-10 18:33:00,32.2,28.5,28.35,NNW,340,0.0,0.0,86,0.04,,---,0.08,VWS V14.00,2013-04-10 23:33:00,
2013-04-10 18:38:00,32.2,28.5,28.35,NNW,340,0.0,0.0,86,0.04,,---,0.08,VWS V14.00,2013-04-10 23:38:00,
2013-04-10 18:43:00,32.2,28.5,28.35,NNW,340,0.0,0.0,86,0.04,,---,0.08,VWS V14.00,2013-04-10 23:43:00,
2013-04-10 18:48:00,32.2,28.5,28.35,NNW,340,0.0,0.0,86,0.04,,---,0.08,VWS V14.00,2013-04-10 23:48:00,
2013-04-10 18:53:00,32.2,28.5,28.35,NNW,340,0.0,0.0,86,0.04,,---,0.08,VWS V14.00,2013-04-10 23:53:00,
2013-04-10 18:58:00,32.2,28.5,28.35,NNW,340,0.0,0.0,86,0.00,,---,0.08,VWS V14.00,2013-04-10 23:58:00,
2013-04-10 19:03:00,32.2,28.5,28.35,NNW,340,0.0,0.0,86,0.00,,---,0.08,VWS V14.00,2013-04-11 00:03:00,
2013-04-10 19:08:00,32.2,28.5,28.35,NNW,340,0.0,0.0,86,0.00,,---,0.08,VWS V14.00,2013-04-11 00:08:00,
2013-04-10 19:14:00,32.2,28.8,28.35,NNW,340,0.0,0.0,87,0.00,,---,0.08,VWS V14.00,2013-04-11 00:14:00,
2013-04-10 19:19:00,32.2,28.8,28.35,NNW,340,0.0,0.0,87,0.00,,---,0.08,VWS V14.00,2013-04-11 00:19:00,
2013-04-10 19:24:00,32.2,28.8,28.35,NNW,340,0.0,0.0,87,0.00,,---,0.08,VWS V14.00,2013-04-11 00:24:00,
2013-04-10 19:29:00,32.2,28.8,28.35,NNW,340,0.0,0.0,87,0.00,,---,0.08,VWS V14.00,2013-04-11 00:29:00,
2013-04-10 19:34:00,32.2,29.0,28.35,NNW,340,0.0,0.0,88,0.00,,---,0.08,VWS V14.00,2013-04-11 00:34:00,
2013-04-10 19:39:00,32.0,28.9,28.35,NNW,340,0.0,0.0,88,0.00,,---,0.08,VWS V14.00,2013-04-11 00:39:00,
2013-04-10 19:44:00,32.0,28.9,28.35,NNW,340,0.0,0.0,88,0.00,,---,0.08,VWS V14.00,2013-04-11 00:44:00,
2013-04-10 19:49:00,32.0,28.9,28.35,NNW,340,0.0,0.0,88,0.00,,---,0.08,VWS V14.00,2013-04-11 00:49:00,
2013-04-10 19:54:00,32.0,28.9,28.35,NNW,340,0.0,0.0,88,0.00,,---,0.08,VWS V14.00,2013-04-11 00:54:00,
2013-04-10 20:00:00,32.0,28.9,28.35,NNW,340,0.0,0.0,88,0.00,,---,0.00,VWS V14.00,2013-04-11 01:00:00,
2013-04-10 20:05:00,32.0,28.9,28.35,NNW,340,0.0,0.0,88,0.00,,---,0.08,VWS V14.00,2013-04-11 01:05:00,
2013-04-10 20:10:00,32.0,28.9,28.35,NNW,340,0.0,0.0,88,0.00,,---,0.08,VWS V14.00,2013-04-11 01:10:00,
2013-04-10 20:15:00,32.0,28.9,28.35,NNW,340,0.0,0.0,88,0.00,,---,0.08,VWS V14.00,2013-04-11 01:15:00,
2013-04-10 20:20:00,32.0,28.9,28.35,NNW,340,0.0,0.0,88,0.00,,---,0.08,VWS V14.00,2013-04-11 01:20:00,
2013-04-10 20:25:00,32.0,28.9,28.35,NNW,340,0.0,0.0,88,0.00,,---,0.08,VWS V14.00,2013-04-11 01:25:00,
2013-04-10 20:30:00,32.0,28.9,28.35,NNW,340,0.0,0.0,88,0.00,,---,0.08,VWS V14.00,2013-04-11 01:30:00,
2013-04-10 20:35:00,32.0,29.1,28.38,NNW,340,0.0,0.0,89,0.00,,---,0.08,VWS V14.00,2013-04-11 01:35:00,
2013-04-10 20:40:00,32.0,29.1,28.38,NNW,340,0.0,0.0,89,0.00,,---,0.08,VWS V14.00,2013-04-11 01:40:00,
2013-04-10 20:45:00,32.0,29.1,28.38,NNW,340,0.0,0.0,89,0.00,,---,0.08,VWS V14.00,2013-04-11 01:45:00,
2013-04-10 20:50:00,32.0,29.1,28.38,NNW,340,0.0,0.0,89,0.00,,---,0.08,VWS V14.00,2013-04-11 01:50:00,
2013-04-10 20:55:00,32.0,29.1,28.38,NNW,340,0.0,0.0,89,0.00,,---,0.08,VWS V14.00,2013-04-11 01:55:00,
2013-04-10 21:00:00,32.0,29.1,28.38,NNW,340,0.0,0.0,89,0.00,,---,0.08,VWS V14.00,2013-04-11 02:00:00,
2013-04-10 21:05:00,32.0,29.1,28.38,NNW,341,0.0,0.0,89,0.00,,---,0.08,VWS V14.00,2013-04-11 02:05:00,
2013-04-10 21:10:00,32.0,29.1,28.38,NNW,340,0.0,0.0,89,0.00,,---,0.08,VWS V14.00,2013-04-11 02:10:00,
2013-04-10 21:15:00,32.0,29.1,28.38,NNW,340,0.0,0.0,89,0.00,,---,0.08,VWS V14.00,2013-04-11 02:15:00,
2013-04-10 21:20:00,32.0,29.1,28.38,NNW,340,0.0,0.0,89,0.00,,---,0.08,VWS V14.00,2013-04-11 02:20:00,
2013-04-10 21:26:00,32.0,29.4,28.38,NNW,340,0.0,0.0,90,0.00,,---,0.08,VWS V14.00,2013-04-11 02:26:00,
2013-04-10 21:30:00,32.0,29.4,28.38,NNW,340,0.0,0.0,90,0.00,,---,0.08,VWS V14.00,2013-04-11 02:30:00,
2013-04-10 21:36:00,32.0,29.4,28.38,NNW,340,0.0,0.0,90,0.00,,---,0.08,VWS V14.00,2013-04-11 02:36:00,
2013-04-10 21:41:00,31.8,29.2,28.38,NNW,340,0.0,0.0,90,0.00,,---,0.08,VWS V14.00,2013-04-11 02:41:00,
2013-04-10 21:46:00,31.8,29.2,28.38,NNW,340,0.0,0.0,90,0.00,,---,0.08,VWS V14.00,2013-04-11 02:46:00,
2013-04-10 21:51:00,31.8,29.5,28.38,NNW,340,0.0,0.0,91,0.00,,---,0.08,VWS V14.00,2013-04-11 02:51:00,
2013-04-10 21:56:00,31.8,29.5,28.38,NNW,340,0.0,0.0,91,0.00,,---,0.08,VWS V14.00,2013-04-11 02:56:00,
2013-04-10 22:01:00,32.0,29.7,28.38,NNW,340,0.0,0.0,91,0.00,,---,0.08,VWS V14.00,2013-04-11 03:01:00,
2013-04-10 22:06:00,32.0,29.7,28.38,NNW,340,0.0,0.0,91,0.00,,---,0.08,VWS V14.00,2013-04-11 03:06:00,
2013-04-10 22:12:00,31.8,29.8,28.38,NNW,340,0.0,0.0,92,0.00,,---,0.08,VWS V14.00,2013-04-11 03:12:00,
2013-04-10 22:17:00,31.8,29.8,28.38,NNW,340,0.0,0.0,92,0.00,,---,0.08,VWS V14.00,2013-04-11 03:17:00,
2013-04-10 22:22:00,31.6,29.6,28.38,NNW,340,0.0,0.0,92,0.00,,---,0.08,VWS V14.00,2013-04-11 03:22:00,
2013-04-10 22:27:00,31.6,29.6,28.38,NNW,340,0.0,0.0,92,0.00,,---,0.08,VWS V14.00,2013-04-11 03:27:00,
2013-04-10 22:32:00,31.6,29.6,28.38,NNW,340,0.0,0.0,92,0.00,,---,0.08,VWS V14.00,2013-04-11 03:32:00,
2013-04-10 22:37:00,31.6,29.6,28.38,NNW,340,0.0,0.0,92,0.00,,---,0.08,VWS V14.00,2013-04-11 03:37:00,
2013-04-10 22:42:00,31.5,29.7,28.38,NNW,340,0.0,0.0,93,0.00,,---,0.08,VWS V14.00,2013-04-11 03:42:00,
2013-04-10 22:47:00,31.5,29.7,28.38,NNW,340,0.0,0.0,93,0.00,,---,0.08,VWS V14.00,2013-04-11 03:47:00,
2013-04-10 22:52:00,31.5,29.4,28.38,NNW,340,0.0,0.0,92,0.00,,---,0.08,VWS V14.00,2013-04-11 03:52:00,
2013-04-10 22:58:00,31.6,29.6,28.38,NNW,340,0.0,0.0,92,0.00,,---,0.08,VWS V14.00,2013-04-11 03:58:00,
2013-04-10 23:00:00,31.6,29.6,28.38,NNW,340,0.0,0.0,92,0.00,,---,0.08,VWS V14.00,2013-04-11 04:00:00,
2013-04-10 23:05:00,31.6,29.6,28.38,NNW,340,0.0,0.0,92,0.00,,---,0.08,VWS V14.00,2013-04-11 04:05:00,
2013-04-10 23:11:00,31.5,29.4,28.38,NNW,340,0.0,0.0,92,0.00,,---,0.08,VWS V14.00,2013-04-11 04:11:00,
2013-04-10 23:16:00,31.5,29.4,28.38,NNW,340,0.0,0.0,92,0.00,,---,0.08,VWS V14.00,2013-04-11 04:16:00,
2013-04-10 23:21:00,31.5,29.4,28.38,NNW,340,0.0,0.0,92,0.00,,---,0.08,VWS V14.00,2013-04-11 04:21:00,
2013-04-10 23:26:00,31.3,29.2,28.38,NNW,340,0.0,0.0,92,0.00,,---,0.08,VWS V14.00,2013-04-11 04:26:00,
2013-04-10 23:32:00,31.3,29.2,28.38,NNW,340,0.0,0.0,92,0.00,,---,0.08,VWS V14.00,2013-04-11 04:32:00,
2013-04-10 23:37:00,31.3,29.2,28.38,NNW,340,0.0,0.0,92,0.00,,---,0.08,VWS V14.00,2013-04-11 04:37:00,
2013-04-10 23:42:00,31.1,29.0,28.38,NNW,340,0.0,0.0,92,0.00,,---,0.08,VWS V14.00,2013-04-11 04:42:00,
2013-04-10 23:47:00,31.1,29.0,28.38,NNW,340,0.0,0.0,92,0.00,,---,0.08,VWS V14.00,2013-04-11 04:47:00,
2013-04-10 23:52:00,31.1,29.0,28.38,NNW,340,0.0,0.0,92,0.00,,---,0.08,VWS V14.00,2013-04-11 04:52:00,
2013-04-10 23:57:00,31.1,29.0,28.38,NNW,340,0.0,0.0,92,0.00,,---,0.08,VWS V14.00,2013-04-11 04:57:00,